• In Hungary
  • List of Countries
  • For 7 days
  • Water Temperature
  • Satellite Maps
  • Weather Map
  • News
  • Weather Widgets
  • user-avatar
    Login

    Hourly Weather Nagasaki

    Today, 19 September, Wednesday

    Time Temperature Precipitation Wind Pressure Humidity
    00:00 +26°C° 0 mm 3 mps 758 mmHg 76%
    01:00 +26°C° 0 mm 3 mps 758 mmHg 76%
    02:00 +25°C° 0 mm 3 mps 758 mmHg 76%
    03:00 +25°C° 0 mm 3 mps 758 mmHg 76%
    04:00 +25°C° 0 mm 3 mps 758 mmHg 75%
    05:00 +25°C° 0 mm 3 mps 758 mmHg 74%
    06:00 +25°C° 0 mm 3 mps 758 mmHg 73%
    07:00 +26°C° 0 mm 2 mps 758 mmHg 66%
    08:00 +28°C° 0 mm 2 mps 758 mmHg 59%
    09:00 +29°C° 0 mm 2 mps 758 mmHg 52%
    10:00 +31°C° 0 mm 2 mps 758 mmHg 46%
    11:00 +32°C° 0 mm 1 mps 758 mmHg 40%
    12:00 +34°C° 0 mm 1 mps 758 mmHg 34%
    13:00 +34°C° 0 mm 1 mps 758 mmHg 36%
    14:00 +33°C° 0 mm 1 mps 757 mmHg 37%
    15:00 +33°C° 0 mm 1 mps 757 mmHg 39%
    16:00 +31°C° 0 mm 1 mps 757 mmHg 44%
    17:00 +30°C° 0 mm 1 mps 757 mmHg 49%
    18:00 +29°C° 0 mm 1 mps 757 mmHg 55%
    19:00 +29°C° 0 mm 1 mps 757 mmHg 57%
    20:00 +28°C° 0 mm 1 mps 757 mmHg 59%
    21:00 +27°C° 0 mm 1 mps 757 mmHg 62%
    22:00 +27°C° 0.2 mm 1 mps 757 mmHg 62%
    23:00 +27°C° 0.2 mm 2 mps 757 mmHg 63%

    Tomorrow, 20 September, Thursday

    Time Temperature Precipitation Wind Pressure Humidity
    00:00 +27°C° 0.2 mm 2 mps 757 mmHg 63%
    01:00 +27°C° 0.5 mm 2 mps 756 mmHg 67%
    02:00 +26°C° 0.5 mm 3 mps 756 mmHg 71%
    03:00 +26°C° 0.5 mm 3 mps 756 mmHg 75%
    04:00 +26°C° 1 mm 3 mps 755 mmHg 78%
    05:00 +26°C° 1 mm 4 mps 755 mmHg 81%
    06:00 +26°C° 1 mm 4 mps 755 mmHg 84%
    07:00 +26°C° 1.3 mm 4 mps 755 mmHg 85%
    08:00 +26°C° 1.3 mm 4 mps 756 mmHg 87%
    09:00 +26°C° 1.3 mm 5 mps 756 mmHg 88%
    10:00 +27°C° 1 mm 4 mps 756 mmHg 89%
    11:00 +27°C° 1 mm 4 mps 756 mmHg 90%
    12:00 +27°C° 1 mm 3 mps 755 mmHg 91%
    13:00 +29°C° 1 mm 3 mps 755 mmHg 84%
    14:00 +30°C° 1 mm 3 mps 755 mmHg 77%
    15:00 +31°C° 1 mm 3 mps 754 mmHg 70%
    16:00 +30°C° 0.9 mm 3 mps 754 mmHg 74%
    17:00 +30°C° 0.9 mm 3 mps 755 mmHg 77%
    18:00 +29°C° 0.9 mm 3 mps 755 mmHg 80%
    19:00 +28°C° 0.5 mm 3 mps 755 mmHg 82%
    20:00 +28°C° 0.5 mm 3 mps 755 mmHg 84%
    21:00 +28°C° 0.5 mm 2 mps 756 mmHg 86%
    22:00 +27°C° 0.7 mm 3 mps 755 mmHg 87%
    23:00 +27°C° 0.7 mm 3 mps 755 mmHg 88%

    Day after tomorrow, 21 September, Friday

    Time Temperature Precipitation Wind Pressure Humidity
    00:00 +27°C° 0.7 mm 3 mps 755 mmHg 89%
    01:00 +27°C° 0.9 mm 4 mps 755 mmHg 89%
    02:00 +27°C° 0.9 mm 4 mps 755 mmHg 90%
    03:00 +27°C° 0.9 mm 5 mps 755 mmHg 90%
    04:00 +27°C° 0.9 mm 5 mps 754 mmHg 90%
    05:00 +27°C° 0.9 mm 6 mps 754 mmHg 91%
    06:00 +27°C° 0.9 mm 7 mps 754 mmHg 91%
    07:00 +28°C° 1.2 mm 7 mps 755 mmHg 87%
    08:00 +29°C° 1.2 mm 7 mps 755 mmHg 83%
    09:00 +31°C° 1.2 mm 8 mps 755 mmHg 79%
    10:00 +29°C° 1.5 mm 8 mps 755 mmHg 82%
    11:00 +29°C° 1.5 mm 8 mps 755 mmHg 85%
    12:00 +28°C° 1.5 mm 9 mps 755 mmHg 88%
    13:00 +28°C° 1.8 mm 9 mps 754 mmHg 88%
    14:00 +28°C° 1.8 mm 9 mps 754 mmHg 88%
    15:00 +28°C° 1.8 mm 9 mps 754 mmHg 88%
    16:00 +28°C° 1.6 mm 9 mps 754 mmHg 88%
    17:00 +28°C° 1.6 mm 8 mps 754 mmHg 88%
    18:00 +28°C° 1.6 mm 8 mps 754 mmHg 88%
    19:00 +28°C° 1.1 mm 7 mps 755 mmHg 89%
    20:00 +28°C° 1.1 mm 7 mps 755 mmHg 90%
    21:00 +28°C° 1.1 mm 7 mps 755 mmHg 91%
    22:00 +27°C° 0.5 mm 6 mps 755 mmHg 92%
    23:00 +27°C° 0.5 mm 6 mps 755 mmHg 92%

    22 September, Saturday

    Time Temperature Precipitation Wind Pressure Humidity
    00:00 +27°C° 0.5 mm 6 mps 755 mmHg 92%
    01:00 +27°C° 0.1 mm 6 mps 755 mmHg 91%
    02:00 +26°C° 0.1 mm 6 mps 755 mmHg 91%
    03:00 +26°C° 0.1 mm 6 mps 755 mmHg 90%
    04:00 +26°C° 0 mm 6 mps 756 mmHg 90%
    05:00 +26°C° 0 mm 6 mps 756 mmHg 90%
    06:00 +24°C° 0 mm 6 mps 756 mmHg 89%
    07:00 +26°C° 0 mm 6 mps 757 mmHg 85%
    08:00 +27°C° 0 mm 5 mps 757 mmHg 82%
    09:00 +28°C° 0 mm 5 mps 757 mmHg 78%
    10:00 +28°C° 0 mm 5 mps 758 mmHg 75%
    11:00 +29°C° 0 mm 5 mps 758 mmHg 72%
    12:00 +30°C° 0 mm 5 mps 758 mmHg 69%
    13:00 +29°C° 0 mm 5 mps 758 mmHg 73%
    14:00 +28°C° 0 mm 5 mps 757 mmHg 76%
    15:00 +28°C° 0 mm 6 mps 757 mmHg 80%
    16:00 +27°C° 0 mm 6 mps 757 mmHg 78%
    17:00 +27°C° 0 mm 6 mps 757 mmHg 75%
    18:00 +27°C° 0 mm 6 mps 758 mmHg 73%
    19:00 +26°C° 0 mm 6 mps 758 mmHg 70%
    20:00 +24°C° 0 mm 6 mps 758 mmHg 68%
    21:00 +25°C° 0 mm 5 mps 759 mmHg 66%
    22:00 +23°C° 0 mm 5 mps 759 mmHg 65%
    23:00 +22°C° 0 mm 5 mps 759 mmHg 64%

    23 September, Sunday

    Time Temperature Precipitation Wind Pressure Humidity
    00:00 +22°C° 0 mm 5 mps 759 mmHg 64%
    01:00 +22°C° 0 mm 5 mps 759 mmHg 66%
    02:00 +22°C° 0 mm 5 mps 758 mmHg 68%
    03:00 +22°C° 0 mm 5 mps 758 mmHg 70%
    04:00 +22°C° 0 mm 5 mps 758 mmHg 71%
    05:00 +21°C° 0 mm 5 mps 758 mmHg 73%
    06:00 +21°C° 0 mm 4 mps 759 mmHg 74%
    07:00 +23°C° 0 mm 4 mps 759 mmHg 69%
    08:00 +25°C° 0 mm 3 mps 759 mmHg 64%
    09:00 +26°C° 0 mm 3 mps 759 mmHg 58%
    10:00 +27°C° 0 mm 2 mps 759 mmHg 53%
    11:00 +28°C° 0 mm 2 mps 759 mmHg 48%
    12:00 +29°C° 0 mm 1 mps 759 mmHg 42%
    13:00 +29°C° 0 mm 1 mps 758 mmHg 43%
    14:00 +28°C° 0 mm 2 mps 758 mmHg 44%
    15:00 +28°C° 0 mm 2 mps 758 mmHg 45%
    16:00 +27°C° 0 mm 2 mps 758 mmHg 46%
    17:00 +27°C° 0 mm 2 mps 758 mmHg 47%
    18:00 +26°C° 0 mm 2 mps 758 mmHg 49%
    19:00 +26°C° 0 mm 3 mps 758 mmHg 50%
    20:00 +26°C° 0 mm 3 mps 759 mmHg 51%
    21:00 +25°C° 0 mm 4 mps 759 mmHg 52%
    22:00 +25°C° 0 mm 4 mps 759 mmHg 54%
    23:00 +25°C° 0 mm 4 mps 759 mmHg 57%

    24 September, Monday

    Time Temperature Precipitation Wind Pressure Humidity
    00:00 +25°C° 0 mm 4 mps 758 mmHg 60%
    01:00 +25°C° 0.1 mm 3 mps 758 mmHg 65%
    02:00 +24°C° 0.1 mm 3 mps 758 mmHg 70%
    03:00 +24°C° 0.1 mm 2 mps 758 mmHg 75%
    04:00 +24°C° 0.4 mm 3 mps 758 mmHg 76%
    05:00 +24°C° 0.4 mm 3 mps 758 mmHg 77%
    06:00 +22°C° 0.4 mm 3 mps 759 mmHg 78%
    07:00 +24°C° 0.9 mm 3 mps 759 mmHg 75%
    08:00 +24°C° 0.9 mm 3 mps 759 mmHg 73%
    09:00 +25°C° 0.9 mm 3 mps 759 mmHg 70%
    10:00 +25°C° 0.5 mm 3 mps 759 mmHg 68%
    11:00 +25°C° 0.5 mm 3 mps 759 mmHg 65%
    12:00 +26°C° 0.5 mm 3 mps 758 mmHg 63%
    13:00 +26°C° 0.2 mm 3 mps 758 mmHg 61%
    14:00 +26°C° 0.2 mm 3 mps 758 mmHg 60%
    15:00 +26°C° 0.2 mm 3 mps 758 mmHg 58%
    16:00 +25°C° 0 mm 4 mps 758 mmHg 59%
    17:00 +25°C° 0 mm 4 mps 758 mmHg 61%
    18:00 +23°C° 0 mm 5 mps 758 mmHg 63%
    19:00 +23°C° 0.1 mm 5 mps 758 mmHg 63%
    20:00 +22°C° 0.1 mm 5 mps 759 mmHg 63%
    21:00 +22°C° 0.1 mm 5 mps 759 mmHg 64%
    22:00 +22°C° 0.1 mm 5 mps 758 mmHg 64%
    23:00 +22°C° 0.1 mm 5 mps 758 mmHg 65%
    Show more